Location: Gniazdowice
(50.2124°N, 20.2673°E)
Time: 12:40:08
(UTC+00:00)

Meteor 1-28 Rocket - Pass Details

Date: 07 August 2024
Orbit: 467 x 482 km, 97.5° (Epoch: 15 September)

Event Time Altitude Azimuth Distance (km) Brightness Sun altitude
Exits shadow 00:55:19 16° 146° (SE) 1,374 5.1 -17.5°
Maximum altitude 00:58:05 53° 72° (ENE) 609 3.8 -17.3°
Drops below altitude 10° 01:01:38 10° 355° (N) 1,689 6.5 -17.0°
Sets 01:03:44 0° 351° (N) 2,573 7.5 -16.8°
